Weather History for Tucumcari, NM

Change the Weather History Date:

Thursday, October 11, 2012

  Actual Average Record
Temperature  
Mean Temperature 68 °F -  
Max Temperature 82 °F 78 °F 92 °F (1962)
Min Temperature 55 °F 45 °F 29 °F (1970)
Cooling Degree Days 3    
Growing Degree Days 18 (Base 50)    
Moisture  
Dew Point 49 °F    
Average Humidity 55    
Maximum Humidity 69    
Minimum Humidity 33    
Precipitation  
Precipitation 0.00 in - - ()
Sea Level Pressure  
Sea Level Pressure 29.96 in    
Wind  
Wind Speed 11 mph (SW)    
Max Wind Speed 23 mph    
Max Gust Speed 30 mph    
Visibility 10 miles    
Events Rain    
Averages and records for this station are not official NWS values.
T = Trace of Precipitation, MM = Missing Value Source: NWS Daily Summary

Daily Weather History Graph

Daily Weather History Graph

Search for Another Location

Airport:

Trip Planner

Search our weather history database for the weather conditions in past years. The results will help you decide how hot, cold, wet, or windy it might be!

Date:

Astronomy

Oct. 11, 2012 Rise Set
Actual Time 6:57 AM MDT 6:23 PM MDT
Civil Twilight 6:32 AM MDT 6:49 PM MDT
Nautical Twilight 6:02 AM MDT 7:18 PM MDT
Astronomical Twilight 5:33 AM MDT 7:47 PM MDT
Moon 2:47 AM MDT (10/11) 3:54 PM MDT (10/11)
Length of Visible Light 12h 17m
Length of Day
11h 26m
Waning Crescent, 18% of the Moon is Illuminated
Oct 11
Waning Crescent
Oct 15
New
Oct 21
First Quarter
Oct 29
Full
Nov 6
Last Quarter

Hourly Weather History & Observations

Time (MDT) Temp. Dew Point Humidity Pressure Visibility Wind Dir Wind Speed Gust Speed Precip Events Conditions
12:53 AM 57.9 °F 41.0 °F 53% 29.98 in 10.0 mi WSW 8.1 mph - N/A   Clear
1:53 AM 57.0 °F 41.0 °F 55% 29.96 in 10.0 mi SSW 10.4 mph - N/A   Clear
2:53 AM 57.0 °F 43.0 °F 59% 29.95 in 10.0 mi Calm Calm - N/A   Clear
3:53 AM 57.0 °F 45.0 °F 64% 29.95 in 10.0 mi SW 15.0 mph - N/A   Clear
4:53 AM 57.9 °F 46.0 °F 65% 29.95 in 10.0 mi WSW 13.8 mph - N/A   Clear
5:25 AM 55.4 °F 44.6 °F 67% 30.08 in 10.0 mi Calm Calm - N/A   Mostly Cloudy
5:53 AM 59.0 °F 48.9 °F 69% 29.95 in 10.0 mi SW 10.4 mph - N/A   Overcast
6:53 AM 60.1 °F 48.9 °F 67% 29.97 in 10.0 mi West 12.7 mph - N/A   Overcast
7:53 AM 57.9 °F 46.9 °F 67% 30.01 in 10.0 mi WNW 3.5 mph - N/A   Overcast
8:41 AM 64.4 °F 53.6 °F 68% 30.12 in 10.0 mi SW 20.7 mph 25.3 mph N/A   Partly Cloudy
8:53 AM 64.9 °F 53.1 °F 65% 29.99 in 10.0 mi SW 20.7 mph - N/A   Clear
9:53 AM 66.9 °F 53.1 °F 61% 30.00 in 10.0 mi SW 17.3 mph 21.9 mph N/A   Clear
10:53 AM 71.1 °F 53.1 °F 53% 29.98 in 10.0 mi SW 13.8 mph - N/A   Clear
11:53 AM 73.9 °F 53.1 °F 48% 29.97 in 10.0 mi SSW 12.7 mph - N/A   Clear
12:53 PM 75.0 °F 53.1 °F 46% 29.93 in 10.0 mi SW 12.7 mph - N/A   Clear
1:53 PM 77.0 °F 52.0 °F 42% 29.91 in 10.0 mi SSW 13.8 mph - N/A   Clear
2:53 PM 80.1 °F 50.0 °F 35% 29.88 in 10.0 mi SSW 9.2 mph - N/A   Clear
3:53 PM 81.0 °F 48.9 °F 33% 29.88 in 10.0 mi SSW 12.7 mph - N/A   Clear
4:53 PM 79.0 °F 52.0 °F 39% 29.89 in 10.0 mi SW 16.1 mph - N/A   Scattered Clouds
5:53 PM 77.0 °F 52.0 °F 42% 29.89 in 10.0 mi SSW 12.7 mph - N/A   Clear
7:53 PM 73.0 °F 52.0 °F 48% 29.95 in 10.0 mi SW 23.0 mph 29.9 mph N/A   Clear
8:53 PM 72.0 °F 51.1 °F 48% 29.95 in 10.0 mi SW 9.2 mph 26.5 mph 0.00 in Rain Light Rain
10:53 PM 66.0 °F 48.9 °F 54% 29.94 in 10.0 mi WSW 4.6 mph - N/A   Clear
11:53 PM 62.1 °F 48.0 °F 60% 29.95 in 10.0 mi SW 9.2 mph - N/A   Clear